Regional Weather Roundup
Issued by NWS

Home | Current Version | Previous Version | Text Only | Print | Product List | Glossary Off
Versions: 1 2 3 4 5 6 7 8 9 10 11 12 13 14 15 16 17 18 19 20 21 22 23 24 25 26 27 28 29 30 31 32 33 34 35 36 37 38 39 40 41 42 43 44 45 46 47 48 49 50

000
ASUS43 KOAX 010402
RWRNE

WEATHER ROUNDUP FOR NEBRASKA
NATIONAL WEATHER SERVICE OMAHA NE
1100 PM CDT TUE MAY 31 2016

NOTES: SATELLITE DATA IS BEING USED TO AUGMENT CLOUD COVER ABOVE
       12000 FEET.
       "FAIR" INDICATES FEW OR NO CLOUDS BELOW 12,000 FEET WITH NO
       SIGNIFICANT WEATHER AND/OR OBSTRUCTIONS TO VISIBILITY.

  * THESE STATIONS DO NOT REPORT WEATHER SUCH AS RAIN...SNOW OR FOG.

NEZ001>004-019>022-054>056-010500-
NEBRASKA PANHANDLE

CITY           SKY/WX    TMP DP  RH WIND       PRES   REMARKS
SCOTTSBLUFF    CLEAR     51  38  60 N7        30.14R
ALLIANCE       CLEAR     52  40  63 N7        30.12R
CHADRON        CLEAR     49  40  71 CALM      30.12R
SIDNEY         CLOUDY    51  41  68 N7        30.16R
$$

NEZ057>060-069>072-079>082-010500-
SOUTHWEST NEBRASKA

CITY           SKY/WX    TMP DP  RH WIND       PRES   REMARKS
NORTH PLATTE   CLEAR     55  49  80 NW6       30.07R
IMPERIAL       PTCLDY    59  52  77 CALM      30.08R
LEXINGTON      CLEAR     59  53  80 S5        30.05R
MCCOOK         CLEAR     58  49  72 CALM      30.07R
$$

NEZ005>010-023>029-035>040-094-010500-
NORTH CENTRAL NEBRASKA

CITY           SKY/WX    TMP DP  RH WIND       PRES   REMARKS
VALENTINE      CLEAR     54  43  66 NW6       30.06R
AINSWORTH      CLEAR     54  46  72 W5        30.07R
BROKEN BOW     PTCLDY    60  49  66 N9        30.05R
$$

NEZ041-046>049-061>064-073>077-083>087-010500-
SOUTH CENTRAL NEBRASKA

CITY           SKY/WX    TMP DP  RH WIND       PRES   REMARKS
GRAND ISLAND   CLEAR     61  53  75 S9        30.03R
HASTINGS       CLEAR     63  50  62 S3        30.04R
KEARNEY *      CLEAR     63  48  59 S6        30.05R
YORK           CLEAR     63  50  63 CALM      30.02R
$$

NEZ011>018-030>034-042>045-010500-
NORTHEAST NEBRASKA

CITY           SKY/WX    TMP DP  RH WIND       PRES   REMARKS
NORFOLK        PTCLDY    65  43  44 SW10      29.97R
ALBION         CLOUDY    60  47  62 W5        30.00R
BLAIR          CLOUDY    64  53  69 S3        29.98R
FREMONT        MOCLDY    66  52  61 SW3       29.99R
TEKAMAH        CLEAR     62  49  62 S7        29.95R
$$

NEZ050>053-065>068-078-088>093-010500-
SOUTHEAST NEBRASKA

CITY           SKY/WX    TMP DP  RH WIND       PRES   REMARKS
LINCOLN        CLOUDY    67  54  63 CALM      30.01R
OMAHA EPPLEY   CLOUDY    66  57  72 SE6       29.97R
FALLS CITY     CLEAR     66  60  81 NW6       29.96S
PLATTSMOUTH    MOCLDY    66  58  77 SE5       29.99R
$$

NEZ044-045-051>053-067-010500-
OMAHA AREA

CITY           SKY/WX    TMP DP  RH WIND       PRES   REMARKS
OMAHA EPPLEY   CLOUDY    66  57  72 SE6       29.97R
BLAIR          CLOUDY    64  53  69 S3        29.98R
FREMONT        MOCLDY    66  52  61 SW3       29.99R
PLATTSMOUTH    MOCLDY    66  58  77 SE5       29.99R
$$



USA.gov is the U.S. government's official web portal to all federal, state and local government web resources and services.